Location: Limerick
(52.6800°N, 8.6400°W)
Time: 02:32:09
(UTC+01:00)

ISS - All Passes

Search period start: 26 August 2016 00:00
Search period end: 05 September 2016 00:00
Orbit: 402 x 406 km, 51.6° (Epoch: 25 August)

Date Brightness Start Highest point End Pass type
(mag) Time Alt. Az. Time Alt. Az. Time Alt. Az.
26 Aug - 10:36:50 10° S 10:38:58 16° SE 10:41:04 10° ESE daylight
26 Aug - 12:11:43 10° WSW 12:14:55 50° SSE 12:18:07 10° E daylight
26 Aug - 13:47:58 10° W 13:51:15 75° S 13:54:33 10° E daylight
26 Aug - 15:24:26 10° W 15:27:33 41° SSW 15:30:41 10° SE daylight
26 Aug - 17:02:02 10° WSW 17:03:24 12° SW 17:04:46 10° SSW daylight
27 Aug - 09:46:17 10° SSE 09:46:48 10° SE 09:47:19 10° SE daylight
27 Aug - 11:19:30 10° SW 11:22:34 37° SSE 11:25:39 10° E daylight
27 Aug - 12:55:33 10° W 12:58:51 74° S 13:02:08 10° E daylight
27 Aug - 14:31:58 10° W 14:35:13 54° SSW 14:38:27 10° ESE daylight
27 Aug - 16:08:52 10° W 16:11:13 18° SW 16:13:35 10° S daylight
28 Aug - 10:27:27 10° SSW 10:30:17 26° SSE 10:33:06 10° E daylight
28 Aug - 12:03:09 10° WSW 12:06:26 66° S 12:09:43 10° E daylight
28 Aug - 13:39:33 10° W 13:42:49 67° S 13:46:05 10° ESE daylight
28 Aug - 15:16:08 10° W 15:18:59 26° SSW 15:21:47 10° SSE daylight
29 Aug - 09:35:40 10° S 09:38:01 18° SE 09:40:23 10° E daylight
29 Aug - 11:10:48 10° WSW 11:14:02 54° SSE 11:17:15 10° E daylight
29 Aug - 12:47:06 10° W 12:50:24 74° S 12:53:40 10° E daylight
29 Aug - 14:23:35 10° W 14:26:40 37° SSW 14:29:44 10° SE daylight
29 Aug - 16:01:52 10° SW 16:02:25 10° SW 16:03:00 10° SSW daylight
30 Aug - 08:44:28 10° SSE 08:45:49 12° SE 08:47:10 10° ESE daylight
30 Aug - 10:18:31 10° SW 10:21:39 41° SSE 10:24:46 10° E daylight
30 Aug - 11:54:39 10° W 11:57:57 75° S 12:01:14 10° E daylight
30 Aug - 13:31:05 10° W 13:34:17 50° SSW 13:37:29 10° ESE daylight
30 Aug - 15:08:07 10° WSW 15:10:15 16° SW 15:12:21 10° S daylight
31 Aug - 09:26:23 10° SW 09:29:18 30° SSE 09:32:14 10° E daylight
31 Aug - 11:02:13 10° WSW 11:05:29 70° S 11:08:46 10° E daylight
31 Aug - 12:38:36 10° W 12:41:53 63° S 12:45:08 10° ESE daylight
31 Aug - 14:15:17 10° W 14:17:59 24° SSW 14:20:41 10° SSE daylight
01 Sep - 08:34:27 10° SSW 08:36:59 21° SSE 08:39:32 10° E daylight
01 Sep - 10:09:48 10° WSW 10:13:03 59° SSE 10:16:18 10° E daylight
01 Sep - 11:46:07 10° W 11:49:25 72° S 11:52:42 10° ESE daylight
01 Sep - 13:22:38 10° W 13:25:39 33° SSW 13:28:39 10° SE daylight
02 Sep - 07:42:57 10° S 07:44:44 14° SE 07:46:31 10° ESE daylight
02 Sep - 09:17:27 10° SW 09:20:37 45° SSE 09:23:47 10° E daylight
02 Sep - 10:53:39 10° W 10:56:57 76° S 11:00:14 10° E daylight
02 Sep - 12:30:05 10° W 12:33:15 46° SSW 12:36:26 10° SE daylight
02 Sep - 14:07:20 10° WSW 14:09:09 14° SW 14:10:58 10° S daylight
03 Sep - 08:25:13 10° SW 08:28:13 33° SSE 08:31:13 10° E daylight
03 Sep - 10:01:09 10° WSW 10:04:27 72° S 10:07:44 10° E daylight
03 Sep - 11:37:34 10° W 11:40:50 59° SSW 11:44:04 10° ESE daylight
03 Sep - 13:14:19 10° W 13:16:52 21° SSW 13:19:26 10° SSE daylight
04 Sep - 07:33:10 10° SSW 07:35:51 23° SSE 07:38:33 10° E daylight
04 Sep - 09:08:42 10° WSW 09:11:58 63° SSE 09:15:13 10° E daylight
04 Sep - 10:45:04 10° W 10:48:20 70° S 10:51:37 10° ESE daylight
04 Sep - 12:21:36 10° W 12:24:32 30° SSW 12:27:27 10° SE daylight
